| time (UTC) | temp F | wind direction | speed MPH | gust MPH | rain 1hr in | rain 24hr in | rain mn in | humidity % | barometer mb |
| 20260507114555 | 63 | 232 | 0.0 | 1.0 | 0.00 | 0.00 | 0.00 | 44 | 1017.0 |
| 20260507114052 | 63 | 236 | 0.0 | 2.0 | 0.00 | 0.00 | 0.00 | 43 | 1016.8 |
| 20260507113549 | 63 | 164 | 0.0 | 2.0 | 0.00 | 0.00 | 0.00 | 43 | 1016.8 |
| 20260507113046 | 63 | 296 | 0.0 | 2.0 | 0.00 | 0.00 | 0.00 | 43 | 1016.9 |
| 20260507112544 | 64 | 228 | 2.0 | 3.0 | 0.00 | 0.00 | 0.00 | 42 | 1016.9 |
| 20260507112040 | 64 | 163 | 2.0 | 3.0 | 0.00 | 0.00 | 0.00 | 42 | 1016.6 |
| 20260507111538 | 63 | 194 | 2.0 | 2.0 | 0.00 | 0.00 | 0.00 | 44 | 1016.7 |
| 20260507111034 | 63 | 162 | 0.0 | 1.0 | 0.00 | 0.00 | 0.00 | 45 | 1016.6 |
| 20260507110531 | 63 | 269 | 0.0 | 2.0 | 0.00 | 0.00 | 0.00 | 44 | 1017.0 |
| 20260507110027 | 64 | 160 | 0.0 | 2.0 | 0.00 | 0.00 | 0.00 | 44 | 1016.8 |
| 20260507105525 | 64 | 238 | 0.0 | 1.0 | 0.00 | 0.00 | 0.00 | 44 | 1016.8 |
| 20260507105020 | 64 | 291 | 0.0 | 2.0 | 0.00 | 0.00 | 0.00 | 44 | 1016.7 |
| 20260507104518 | 63 | 299 | 0.0 | 2.0 | 0.00 | 0.00 | 0.00 | 44 | 1016.7 |
| 20260507104015 | 64 | 208 | 0.0 | 2.0 | 0.00 | 0.00 | 0.00 | 43 | 1016.9 |
| 20260507103505 | 65 | 180 | 1.0 | 2.0 | 0.00 | 0.00 | 0.00 | 43 | 1016.8 |
| 20260507103002 | 65 | 162 | 1.0 | 2.0 | 0.00 | 0.00 | 0.00 | 43 | 1016.9 |
| 20260507102459 | 65 | 141 | 1.0 | 2.0 | 0.00 | 0.00 | 0.00 | 44 | 1016.7 |
| 20260507101954 | 65 | 212 | 1.0 | 2.0 | 0.00 | 0.00 | 0.00 | 44 | 1016.7 |
| 20260507101449 | 64 | 180 | 0.0 | 1.0 | 0.00 | 0.00 | 0.00 | 43 | 1016.8 |
| 20260507100946 | 64 | 189 | 1.0 | 1.0 | 0.00 | 0.00 | 0.00 | 44 | 1016.9 |
| 20260507100443 | 64 | 197 | 0.0 | 2.0 | 0.00 | 0.00 | 0.00 | 45 | 1016.9 |
| 20260507095942 | 65 | 140 | 1.0 | 1.0 | 0.00 | 0.00 | 0.00 | 44 | 1016.9 |
| 20260507095439 | 64 | 146 | 0.0 | 0.0 | 0.00 | 0.00 | 0.00 | 46 | 1016.8 |
| 20260507094936 | 66 | 211 | 0.0 | 2.0 | 0.00 | 0.00 | 0.00 | 44 | 1016.9 |
| 20260507094432 | 66 | 14 | 0.0 | 1.0 | 0.00 | 0.00 | 0.00 | 44 | 1016.9 |
| 20260507093929 | 66 | 206 | 1.0 | 2.0 | 0.00 | 0.00 | 0.00 | 44 | 1017.1 |
| 20260507093427 | 65 | 256 | 2.0 | 2.0 | 0.00 | 0.00 | 0.00 | 45 | 1016.8 |
| 20260507092925 | 65 | 212 | 0.0 | 1.0 | 0.00 | 0.00 | 0.00 | 44 | 1017.2 |
| 20260507092420 | 66 | 170 | 2.0 | 2.0 | 0.00 | 0.00 | 0.00 | 44 | 1017.2 |
| 20260507091917 | 65 | 248 | 1.0 | 2.0 | 0.00 | 0.00 | 0.00 | 45 | 1017.4 |
| 20260507091414 | 66 | 243 | 1.0 | 2.0 | 0.00 | 0.00 | 0.00 | 44 | 1017.2 |
| 20260507090910 | 66 | 239 | 0.0 | 1.0 | 0.00 | 0.00 | 0.00 | 43 | 1017.5 |
| 20260507090406 | 66 | 153 | 1.0 | 2.0 | 0.00 | 0.00 | 0.00 | 44 | 1017.4 |
| 20260507085903 | 66 | 219 | 0.0 | 2.0 | 0.00 | 0.00 | 0.00 | 44 | 1017.6 |
| 20260507085400 | 67 | 213 | 1.0 | 2.0 | 0.00 | 0.00 | 0.00 | 44 | 1017.5 |
| 20260507084857 | 66 | 171 | 0.0 | 2.0 | 0.00 | 0.00 | 0.00 | 45 | 1017.7 |
| 20260507084354 | 66 | 176 | 0.0 | 2.0 | 0.00 | 0.00 | 0.00 | 45 | 1017.6 |
| 20260507083851 | 66 | 234 | 0.0 | 2.0 | 0.00 | 0.00 | 0.00 | 44 | 1017.7 |
| 20260507083347 | 67 | 204 | 1.0 | 3.0 | 0.00 | 0.00 | 0.00 | 43 | 1017.7 |
| 20260507082843 | 67 | 125 | 1.0 | 2.0 | 0.00 | 0.00 | 0.00 | 45 | 1017.8 |
| 20260507082339 | 68 | 66 | 0.0 | 1.0 | 0.00 | 0.00 | 0.00 | 45 | 1017.6 |
| 20260507081837 | 68 | 89 | 0.0 | 0.0 | 0.00 | 0.00 | 0.00 | 45 | 1017.6 |
| 20260507081332 | 68 | 309 | 0.0 | 0.0 | 0.00 | 0.00 | 0.00 | 42 | 1017.8 |
| 20260507080829 | 68 | 202 | 1.0 | 2.0 | 0.00 | 0.00 | 0.00 | 42 | 1017.9 |
| 20260507080325 | 68 | 212 | 0.0 | 1.0 | 0.00 | 0.00 | 0.00 | 42 | 1017.8 |
| 20260507075821 | 68 | 44 | 0.0 | 2.0 | 0.00 | 0.00 | 0.00 | 42 | 1017.8 |
| 20260507075317 | 69 | 269 | 0.0 | 1.0 | 0.00 | 0.00 | 0.00 | 39 | 1017.9 |
| 20260507074814 | 70 | 55 | 0.0 | 1.0 | 0.00 | 0.00 | 0.00 | 41 | 1017.6 |
| 20260507074312 | 69 | 107 | 0.0 | 1.0 | 0.00 | 0.00 | 0.00 | 42 | 1017.7 |
| 20260507073809 | 71 | 196 | 1.0 | 2.0 | 0.00 | 0.00 | 0.00 | 41 | 1017.7 |
| 20260507073305 | 72 | 119 | 0.0 | 2.0 | 0.00 | 0.00 | 0.00 | 40 | 1017.7 |
| 20260507072802 | 72 | 223 | 2.0 | 3.0 | 0.00 | 0.00 | 0.00 | 41 | 1017.6 |
| 20260507072300 | 73 | 173 | 0.0 | 3.0 | 0.00 | 0.00 | 0.00 | 42 | 1017.9 |
| 20260507071757 | 71 | 146 | 2.0 | 3.0 | 0.00 | 0.00 | 0.00 | 43 | 1017.8 |
| 20260507071253 | 70 | 168 | 2.0 | 2.0 | 0.00 | 0.00 | 0.00 | 44 | 1017.9 |
| 20260507070750 | 69 | 252 | 1.0 | 2.0 | 0.00 | 0.00 | 0.00 | 43 | 1017.7 |
| 20260507070247 | 69 | 269 | 0.0 | 2.0 | 0.00 | 0.00 | 0.00 | 42 | 1017.9 |
| 20260507065744 | 70 | 316 | 0.0 | 3.0 | 0.00 | 0.00 | 0.00 | 43 | 1017.8 |
| 20260507065241 | 69 | 311 | 0.0 | 2.0 | 0.00 | 0.00 | 0.00 | 44 | 1017.7 |
| 20260507064738 | 70 | 106 | 2.0 | 3.0 | 0.00 | 0.00 | 0.00 | 43 | 1017.8 |
| 20260507064237 | 70 | 60 | 0.0 | 2.0 | 0.00 | 0.00 | 0.00 | 43 | 1017.8 |
| 20260507063734 | 70 | 91 | 0.0 | 2.0 | 0.00 | 0.00 | 0.00 | 42 | 1017.6 |
| 20260507063230 | 71 | 126 | 0.0 | 2.0 | 0.00 | 0.00 | 0.00 | 41 | 1017.6 |
| 20260507062727 | 72 | 124 | 2.0 | 2.0 | 0.00 | 0.00 | 0.00 | 41 | 1017.7 |
| 20260507062225 | 72 | 109 | 0.0 | 2.0 | 0.00 | 0.00 | 0.00 | 42 | 1017.6 |
| 20260507061723 | 71 | 235 | 1.0 | 2.0 | 0.00 | 0.00 | 0.00 | 41 | 1017.7 |
| 20260507061221 | 72 | 173 | 0.0 | 1.0 | 0.00 | 0.00 | 0.00 | 42 | 1017.6 |
| 20260507060718 | 71 | 171 | 0.0 | 1.0 | 0.00 | 0.00 | 0.00 | 42 | 1017.5 |
| 20260507060214 | 71 | 224 | 0.0 | 1.0 | 0.00 | 0.00 | 0.00 | 39 | 1017.7 |
| 20260507055711 | 73 | 212 | 0.0 | 2.0 | 0.00 | 0.00 | 0.00 | 40 | 1017.7 |
| 20260507055207 | 73 | 65 | 0.0 | 2.0 | 0.00 | 0.00 | 0.00 | 38 | 1017.7 |
| 20260507054703 | 74 | 49 | 0.0 | 2.0 | 0.00 | 0.00 | 0.00 | 37 | 1017.5 |
| 20260507054159 | 74 | 287 | 0.0 | 4.0 | 0.00 | 0.00 | 0.00 | 37 | 1017.7 |
| 20260507053658 | 75 | 87 | 1.0 | 3.0 | 0.00 | 0.00 | 0.00 | 36 | 1017.6 |
| 20260507053155 | 75 | 131 | 1.0 | 2.0 | 0.00 | 0.00 | 0.00 | 36 | 1017.7 |
| 20260507052654 | 74 | 127 | 0.0 | 4.0 | 0.00 | 0.00 | 0.00 | 36 | 1017.7 |
| 20260507052149 | 74 | 170 | 1.0 | 2.0 | 0.00 | 0.00 | 0.00 | 36 | 1017.7 |
| 20260507051647 | 74 | 217 | 2.0 | 2.0 | 0.00 | 0.00 | 0.00 | 36 | 1017.6 |
| 20260507051144 | 74 | 174 | 1.0 | 2.0 | 0.00 | 0.00 | 0.00 | 36 | 1017.8 |
| 20260507050641 | 75 | 66 | 0.0 | 2.0 | 0.00 | 0.00 | 0.00 | 34 | 1017.9 |
| 20260507050137 | 75 | 151 | 2.0 | 2.0 | 0.00 | 0.00 | 0.00 | 34 | 1017.9 |
| 20260507045634 | 75 | 75 | 0.0 | 4.0 | 0.00 | 0.00 | 0.00 | 34 | 1018.0 |
| 20260507045131 | 75 | 180 | 0.0 | 2.0 | 0.00 | 0.00 | 0.00 | 35 | 1017.8 |
| 20260507044628 | 77 | 89 | 0.0 | 2.0 | 0.00 | 0.00 | 0.00 | 36 | 1018.0 |
| 20260507044125 | 78 | 358 | 1.0 | 1.0 | 0.00 | 0.00 | 0.00 | 35 | 1017.9 |
| 20260507043621 | 78 | 206 | 0.0 | 4.0 | 0.00 | 0.00 | 0.00 | 35 | 1017.7 |
| 20260507043118 | 79 | 268 | 2.0 | 3.0 | 0.00 | 0.00 | 0.00 | 35 | 1017.8 |
| 20260507042614 | 79 | 245 | 4.0 | 5.0 | 0.00 | 0.00 | 0.00 | 35 | 1018.0 |
| 20260507042109 | 78 | 280 | 0.0 | 3.0 | 0.00 | 0.00 | 0.00 | 35 | 1017.7 |
| 20260507041606 | 79 | 245 | 3.0 | 4.0 | 0.00 | 0.00 | 0.00 | 35 | 1017.7 |
| 20260507041103 | 79 | 250 | 2.0 | 5.0 | 0.00 | 0.00 | 0.00 | 35 | 1017.8 |
| 20260507040600 | 79 | 25 | 0.0 | 3.0 | 0.00 | 0.00 | 0.00 | 35 | 1017.8 |
| 20260507040056 | 79 | 330 | 4.0 | 5.0 | 0.00 | 0.00 | 0.00 | 35 | 1017.6 |
| 20260507035552 | 79 | 337 | 2.0 | 3.0 | 0.00 | 0.00 | 0.00 | 34 | 1017.8 |
| 20260507035044 | 79 | 333 | 3.0 | 4.0 | 0.00 | 0.00 | 0.00 | 34 | 1017.8 |
| 20260507034540 | 80 | 333 | 2.0 | 6.0 | 0.00 | 0.00 | 0.00 | 34 | 1017.6 |
| 20260507034038 | 80 | 331 | 2.0 | 8.0 | 0.00 | 0.00 | 0.00 | 34 | 1017.4 |
| 20260507033536 | 80 | 304 | 3.0 | 8.0 | 0.00 | 0.00 | 0.00 | 34 | 1017.7 |
| 20260507033033 | 80 | 326 | 2.0 | 5.0 | 0.00 | 0.00 | 0.00 | 34 | 1017.4 |
| 20260507032530 | 80 | 315 | 7.0 | 12.0 | 0.00 | 0.00 | 0.00 | 34 | 1017.3 |
| 20260507032026 | 80 | 305 | 3.0 | 6.0 | 0.00 | 0.00 | 0.00 | 35 | 1017.3 |
| 20260507031522 | 80 | 302 | 3.0 | 6.0 | 0.00 | 0.00 | 0.00 | 35 | 1017.2 |
| 20260507031020 | 81 | 312 | 4.0 | 7.0 | 0.00 | 0.00 | 0.00 | 35 | 1017.2 |
| 20260507030516 | 81 | 337 | 4.0 | 8.0 | 0.00 | 0.00 | 0.00 | 35 | 1017.2 |
| 20260507030014 | 81 | 327 | 6.0 | 7.0 | 0.00 | 0.00 | 0.00 | 35 | 1016.9 |
| 20260507025511 | 81 | 322 | 5.0 | 8.0 | 0.00 | 0.00 | 0.00 | 35 | 1016.9 |
| 20260507025008 | 81 | 310 | 7.0 | 9.0 | 0.00 | 0.00 | 0.00 | 35 | 1016.8 |
| 20260507024506 | 81 | 340 | 3.0 | 3.0 | 0.00 | 0.00 | 0.00 | 32 | 1016.9 |
| 20260507024001 | 81 | 109 | 1.0 | 2.0 | 0.00 | 0.00 | 0.00 | 28 | 1016.9 |
| 20260507023458 | 81 | 1 | 2.0 | 3.0 | 0.00 | 0.00 | 0.00 | 24 | 1016.8 |
| 20260507022955 | 80 | 352 | 2.0 | 2.0 | 0.00 | 0.00 | 0.00 | 24 | 1017.0 |
| 20260507022452 | 81 | 347 | 1.0 | 2.0 | 0.00 | 0.00 | 0.00 | 24 | 1016.7 |
| 20260507021948 | 81 | 51 | 0.0 | 2.0 | 0.00 | 0.00 | 0.00 | 23 | 1016.6 |
| 20260507021443 | 82 | 69 | 1.0 | 2.0 | 0.00 | 0.00 | 0.00 | 23 | 1016.7 |
| 20260507020941 | 82 | 85 | 2.0 | 2.0 | 0.00 | 0.00 | 0.00 | 23 | 1016.6 |
| 20260507020437 | 82 | 108 | 2.0 | 2.0 | 0.00 | 0.00 | 0.00 | 22 | 1016.5 |
| 20260507015934 | 83 | 48 | 0.0 | 2.0 | 0.00 | 0.00 | 0.00 | 22 | 1016.6 |
| 20260507015433 | 83 | 75 | 2.0 | 3.0 | 0.00 | 0.00 | 0.00 | 22 | 1016.7 |
| 20260507014924 | 83 | 81 | 3.0 | 4.0 | 0.00 | 0.00 | 0.00 | 22 | 1016.3 |
| 20260507014421 | 83 | 93 | 2.0 | 5.0 | 0.00 | 0.00 | 0.00 | 22 | 1016.3 |
| 20260507013917 | 83 | 87 | 4.0 | 5.0 | 0.00 | 0.00 | 0.00 | 22 | 1016.3 |
| 20260507013414 | 84 | 86 | 3.0 | 4.0 | 0.00 | 0.00 | 0.00 | 22 | 1016.5 |
| 20260507012912 | 84 | 94 | 4.0 | 6.0 | 0.00 | 0.00 | 0.00 | 22 | 1016.5 |
| 20260507012408 | 84 | 95 | 4.0 | 5.0 | 0.00 | 0.00 | 0.00 | 21 | 1016.6 |
| 20260507011904 | 86 | 89 | 2.0 | 4.0 | 0.00 | 0.00 | 0.00 | 21 | 1016.3 |
| 20260507011401 | 88 | 55 | 2.0 | 3.0 | 0.00 | 0.00 | 0.00 | 20 | 1016.3 |
| 20260507010855 | 87 | 248 | 0.0 | 4.0 | 0.00 | 0.00 | 0.00 | 20 | 1016.3 |
| 20260507010351 | 86 | 103 | 0.0 | 3.0 | 0.00 | 0.00 | 0.00 | 21 | 1016.2 |
| 20260507005849 | 86 | 41 | 1.0 | 5.0 | 0.00 | 0.00 | 0.00 | 21 | 1016.3 |
| 20260507005345 | 87 | 175 | 0.0 | 4.0 | 0.00 | 0.00 | 0.00 | 20 | 1016.1 |
| 20260507004842 | 87 | 42 | 3.0 | 5.0 | 0.00 | 0.00 | 0.00 | 20 | 1016.2 |
| 20260507004339 | 90 | 71 | 2.0 | 3.0 | 0.00 | 0.00 | 0.00 | 19 | 1016.1 |
| 20260507003836 | 88 | 96 | 1.0 | 3.0 | 0.00 | 0.00 | 0.00 | 20 | 1016.2 |
| 20260507003331 | 87 | 83 | 3.0 | 5.0 | 0.00 | 0.00 | 0.00 | 20 | 1016.5 |
| 20260507002826 | 87 | 94 | 2.0 | 8.0 | 0.00 | 0.00 | 0.00 | 20 | 1016.2 |
| 20260507002322 | 87 | 88 | 4.0 | 7.0 | 0.00 | 0.00 | 0.00 | 20 | 1016.1 |
| 20260507001820 | 88 | 80 | 2.0 | 5.0 | 0.00 | 0.00 | 0.00 | 20 | 1016.2 |
| 20260507001317 | 89 | 79 | 1.0 | 2.0 | 0.00 | 0.00 | 0.00 | 19 | 1016.1 |
| 20260507000813 | 87 | 167 | 1.0 | 3.0 | 0.00 | 0.00 | 0.00 | 20 | 1016.3 |
| 20260507000309 | 87 | 79 | 5.0 | 6.0 | 0.00 | 0.00 | 0.00 | 20 | 1016.2 |
| 20260506235806 | 87 | 76 | 3.0 | 4.0 | 0.00 | 0.00 | 0.00 | 20 | 1016.3 |
| 20260506235306 | 87 | 71 | 3.0 | 5.0 | 0.00 | 0.00 | 0.00 | 20 | 1016.2 |
| 20260506234753 | 88 | 91 | 4.0 | 6.0 | 0.00 | 0.00 | 0.00 | 20 | 1016.0 |
| 20260506234251 | 90 | 255 | 0.0 | 2.0 | 0.00 | 0.00 | 0.00 | 19 | 1016.1 |
| 20260506233748 | 88 | 73 | 2.0 | 3.0 | 0.00 | 0.00 | 0.00 | 20 | 1016.5 |
| 20260506233244 | 88 | 71 | 2.0 | 4.0 | 0.00 | 0.00 | 0.00 | 20 | 1016.3 |
| 20260506232741 | 88 | 97 | 2.0 | 4.0 | 0.00 | 0.00 | 0.00 | 20 | 1016.5 |
| 20260506232236 | 87 | 63 | 0.0 | 5.0 | 0.00 | 0.00 | 0.00 | 21 | 1016.5 |
| 20260506231734 | 87 | 98 | 3.0 | 7.0 | 0.00 | 0.00 | 0.00 | 20 | 1016.3 |
| 20260506231232 | 87 | 81 | 2.0 | 8.0 | 0.00 | 0.00 | 0.00 | 21 | 1016.6 |
| 20260506230729 | 86 | 109 | 7.0 | 13.0 | 0.00 | 0.00 | 0.00 | 21 | 1016.3 |
| 20260506230225 | 87 | 185 | 2.0 | 5.0 | 0.00 | 0.00 | 0.00 | 20 | 1016.6 |
| 20260506225722 | 88 | 161 | 2.0 | 6.0 | 0.00 | 0.00 | 0.00 | 20 | 1016.7 |
| 20260506225219 | 88 | 89 | 0.0 | 4.0 | 0.00 | 0.00 | 0.00 | 20 | 1016.8 |
| 20260506224715 | 88 | 215 | 2.0 | 4.0 | 0.00 | 0.00 | 0.00 | 20 | 1016.8 |
| 20260506224212 | 89 | 137 | 2.0 | 6.0 | 0.00 | 0.00 | 0.00 | 19 | 1016.7 |
| 20260506223709 | 88 | 110 | 3.0 | 8.0 | 0.00 | 0.00 | 0.00 | 20 | 1016.9 |
| 20260506223204 | 87 | 78 | 4.0 | 6.0 | 0.00 | 0.00 | 0.00 | 20 | 1017.0 |
| 20260506222701 | 87 | 4 | 2.0 | 5.0 | 0.00 | 0.00 | 0.00 | 20 | 1016.9 |
| 20260506222156 | 87 | 104 | 3.0 | 7.0 | 0.00 | 0.00 | 0.00 | 20 | 1017.2 |
| 20260506221650 | 86 | 92 | 6.0 | 9.0 | 0.00 | 0.00 | 0.00 | 20 | 1017.2 |
| 20260506221147 | 87 | 107 | 6.0 | 7.0 | 0.00 | 0.00 | 0.00 | 20 | 1017.3 |
| 20260506220644 | 87 | 88 | 6.0 | 12.0 | 0.00 | 0.00 | 0.00 | 20 | 1017.4 |
| 20260506220139 | 87 | 247 | 2.0 | 6.0 | 0.00 | 0.00 | 0.00 | 20 | 1017.4 |
| 20260506215636 | 88 | 128 | 2.0 | 5.0 | 0.00 | 0.00 | 0.00 | 20 | 1017.5 |
| 20260506215131 | 87 | 156 | 0.0 | 7.0 | 0.00 | 0.00 | 0.00 | 20 | 1017.5 |
| 20260506214628 | 86 | 95 | 5.0 | 7.0 | 0.00 | 0.00 | 0.00 | 21 | 1017.6 |
| 20260506214126 | 86 | 144 | 4.0 | 9.0 | 0.00 | 0.00 | 0.00 | 20 | 1017.7 |
| 20260506213624 | 86 | 108 | 9.0 | 9.0 | 0.00 | 0.00 | 0.00 | 20 | 1017.6 |
| 20260506213121 | 86 | 91 | 9.0 | 11.0 | 0.00 | 0.00 | 0.00 | 20 | 1017.5 |
| 20260506212618 | 86 | 98 | 4.0 | 6.0 | 0.00 | 0.00 | 0.00 | 20 | 1017.9 |
| 20260506212113 | 86 | 91 | 3.0 | 9.0 | 0.00 | 0.00 | 0.00 | 20 | 1018.0 |
| 20260506211608 | 86 | 86 | 3.0 | 4.0 | 0.00 | 0.00 | 0.00 | 21 | 1017.9 |
| 20260506211106 | 86 | 58 | 3.0 | 5.0 | 0.00 | 0.00 | 0.00 | 21 | 1018.2 |
| 20260506210602 | 86 | 110 | 1.0 | 4.0 | 0.00 | 0.00 | 0.00 | 20 | 1018.2 |
| 20260506210059 | 86 | 214 | 1.0 | 3.0 | 0.00 | 0.00 | 0.00 | 21 | 1018.2 |
| 20260506205556 | 86 | 178 | 3.0 | 5.0 | 0.00 | 0.00 | 0.00 | 20 | 1018.1 |
| 20260506205051 | 84 | 101 | 6.0 | 9.0 | 0.00 | 0.00 | 0.00 | 21 | 1018.2 |
| 20260506204549 | 86 | 96 | 5.0 | 6.0 | 0.00 | 0.00 | 0.00 | 21 | 1018.2 |
| 20260506204046 | 85 | 84 | 2.0 | 7.0 | 0.00 | 0.00 | 0.00 | 21 | 1018.4 |
| 20260506203544 | 85 | 104 | 4.0 | 8.0 | 0.00 | 0.00 | 0.00 | 21 | 1018.3 |
| 20260506203040 | 86 | 69 | 3.0 | 7.0 | 0.00 | 0.00 | 0.00 | 21 | 1018.5 |
| 20260506202538 | 84 | 163 | 5.0 | 8.0 | 0.00 | 0.00 | 0.00 | 21 | 1018.6 |
| 20260506202034 | 84 | 252 | 5.0 | 5.0 | 0.00 | 0.00 | 0.00 | 21 | 1018.5 |
| 20260506201532 | 84 | 20 | 2.0 | 4.0 | 0.00 | 0.00 | 0.00 | 22 | 1018.6 |
| 20260506201028 | 83 | 95 | 9.0 | 12.0 | 0.00 | 0.00 | 0.00 | 22 | 1018.8 |
| 20260506200524 | 84 | 73 | 5.0 | 6.0 | 0.00 | 0.00 | 0.00 | 22 | 1018.8 |
| 20260506200021 | 84 | 76 | 2.0 | 5.0 | 0.00 | 0.00 | 0.00 | 22 | 1018.8 |
| 20260506195518 | 84 | 126 | 4.0 | 9.0 | 0.00 | 0.00 | 0.00 | 22 | 1019.0 |
| 20260506195014 | 83 | 148 | 1.0 | 4.0 | 0.00 | 0.00 | 0.00 | 23 | 1019.1 |
| 20260506194512 | 83 | 113 | 4.0 | 8.0 | 0.00 | 0.00 | 0.00 | 22 | 1019.0 |
| 20260506194008 | 84 | 91 | 5.0 | 6.0 | 0.00 | 0.00 | 0.00 | 22 | 1019.2 |
| 20260506193505 | 82 | 97 | 3.0 | 12.0 | 0.00 | 0.00 | 0.00 | 23 | 1019.1 |
| 20260506192956 | 83 | 213 | 0.0 | 4.0 | 0.00 | 0.00 | 0.00 | 23 | 1019.2 |
| 20260506192454 | 84 | 128 | 6.0 | 6.0 | 0.00 | 0.00 | 0.00 | 22 | 1019.3 |
| 20260506191949 | 84 | 202 | 3.0 | 5.0 | 0.00 | 0.00 | 0.00 | 23 | 1019.2 |
| 20260506191447 | 82 | 163 | 1.0 | 6.0 | 0.00 | 0.00 | 0.00 | 23 | 1019.3 |
| 20260506190943 | 82 | 267 | 2.0 | 3.0 | 0.00 | 0.00 | 0.00 | 24 | 1019.4 |
| 20260506190440 | 81 | 313 | 1.0 | 4.0 | 0.00 | 0.00 | 0.00 | 25 | 1019.4 |
| 20260506185936 | 82 | 104 | 4.0 | 5.0 | 0.00 | 0.00 | 0.00 | 24 | 1019.5 |
| 20260506185434 | 82 | 173 | 4.0 | 5.0 | 0.00 | 0.00 | 0.00 | 25 | 1019.5 |
| 20260506184931 | 81 | 85 | 5.0 | 5.0 | 0.00 | 0.00 | 0.00 | 26 | 1019.5 |
| 20260506184427 | 82 | 302 | 0.0 | 3.0 | 0.00 | 0.00 | 0.00 | 25 | 1019.6 |
| 20260506183925 | 82 | 313 | 3.0 | 5.0 | 0.00 | 0.00 | 0.00 | 26 | 1019.7 |
| 20260506183420 | 80 | 112 | 3.0 | 9.0 | 0.00 | 0.00 | 0.00 | 26 | 1019.7 |
| 20260506182912 | 80 | 63 | 3.0 | 3.0 | 0.00 | 0.00 | 0.00 | 27 | 1019.8 |
| 20260506182409 | 79 | 141 | 2.0 | 4.0 | 0.00 | 0.00 | 0.00 | 28 | 1019.9 |
| 20260506181907 | 79 | 108 | 3.0 | 8.0 | 0.00 | 0.00 | 0.00 | 28 | 1019.7 |
| 20260506181404 | 81 | 96 | 1.0 | 5.0 | 0.00 | 0.00 | 0.00 | 27 | 1019.9 |
| 20260506180901 | 80 | 134 | 2.0 | 4.0 | 0.00 | 0.00 | 0.00 | 28 | 1019.8 |
| 20260506180357 | 77 | 102 | 4.0 | 9.0 | 0.00 | 0.00 | 0.00 | 29 | 1019.9 |
| 20260506175854 | 79 | 81 | 2.0 | 4.0 | 0.00 | 0.00 | 0.00 | 28 | 1019.8 |
| 20260506175350 | 80 | 82 | 2.0 | 4.0 | 0.00 | 0.00 | 0.00 | 28 | 1019.9 |
| 20260506174848 | 78 | 166 | 1.0 | 5.0 | 0.00 | 0.00 | 0.00 | 29 | 1020.0 |
| 20260506174345 | 77 | 35 | 1.0 | 5.0 | 0.00 | 0.00 | 0.00 | 30 | 1019.9 |
| 20260506173843 | 77 | 79 | 4.0 | 8.0 | 0.00 | 0.00 | 0.00 | 30 | 1019.9 |
| 20260506173339 | 78 | 58 | 0.0 | 3.0 | 0.00 | 0.00 | 0.00 | 29 | 1019.9 |
| 20260506172836 | 77 | 78 | 2.0 | 9.0 | 0.00 | 0.00 | 0.00 | 30 | 1020.2 |
| 20260506172333 | 76 | 107 | 3.0 | 6.0 | 0.00 | 0.00 | 0.00 | 30 | 1019.9 |
| 20260506171830 | 76 | 124 | 2.0 | 3.0 | 0.00 | 0.00 | 0.00 | 30 | 1020.0 |
| 20260506171327 | 76 | 112 | 3.0 | 8.0 | 0.00 | 0.00 | 0.00 | 30 | 1020.1 |
| 20260506170825 | 75 | 62 | 1.0 | 5.0 | 0.00 | 0.00 | 0.00 | 31 | 1020.0 |
| 20260506170320 | 76 | 108 | 3.0 | 5.0 | 0.00 | 0.00 | 0.00 | 30 | 1020.0 |
| 20260506165819 | 75 | 350 | 1.0 | 4.0 | 0.00 | 0.00 | 0.00 | 31 | 1019.8 |
| 20260506165316 | 75 | 95 | 4.0 | 4.0 | 0.00 | 0.00 | 0.00 | 31 | 1020.1 |
| 20260506164813 | 77 | 69 | 3.0 | 4.0 | 0.00 | 0.00 | 0.00 | 30 | 1020.0 |
| 20260506164310 | 76 | 162 | 2.0 | 4.0 | 0.00 | 0.00 | 0.00 | 31 | 1019.9 |
| 20260506163807 | 74 | 249 | 3.0 | 3.0 | 0.00 | 0.00 | 0.00 | 32 | 1019.9 |
| 20260506163301 | 74 | 145 | 1.0 | 4.0 | 0.00 | 0.00 | 0.00 | 33 | 1019.9 |
| 20260506162757 | 73 | 20 | 3.0 | 4.0 | 0.00 | 0.00 | 0.00 | 34 | 1019.8 |
| 20260506162256 | 73 | 258 | 0.0 | 3.0 | 0.00 | 0.00 | 0.00 | 34 | 1019.8 |
| 20260506161752 | 73 | 61 | 0.0 | 2.0 | 0.00 | 0.00 | 0.00 | 35 | 1019.8 |
| 20260506161250 | 73 | 89 | 0.0 | 3.0 | 0.00 | 0.00 | 0.00 | 35 | 1019.8 |
| 20260506160747 | 71 | 151 | 3.0 | 3.0 | 0.00 | 0.00 | 0.00 | 36 | 1019.7 |
| 20260506160244 | 72 | 117 | 4.0 | 4.0 | 0.00 | 0.00 | 0.00 | 35 | 1019.8 |
| 20260506155743 | 72 | 89 | 0.0 | 2.0 | 0.00 | 0.00 | 0.00 | 35 | 1019.8 |
| 20260506155239 | 73 | 109 | 2.0 | 3.0 | 0.00 | 0.00 | 0.00 | 35 | 1019.9 |
| 20260506153347 | 69 | 191 | 1.0 | 3.0 | 0.00 | 0.00 | 0.00 | 39 | 1019.7 |
| 20260506152843 | 68 | 322 | 0.0 | 3.0 | 0.00 | 0.00 | 0.00 | 40 | 1019.7 |
| 20260506152340 | 70 | 102 | 0.0 | 3.0 | 0.00 | 0.00 | 0.00 | 38 | 1019.6 |
| 20260506151839 | 71 | 269 | 0.0 | 2.0 | 0.00 | 0.00 | 0.00 | 38 | 1019.7 |
| 20260506151336 | 71 | 58 | 2.0 | 2.0 | 0.00 | 0.00 | 0.00 | 37 | 1019.7 |
| 20260506150833 | 69 | 25 | 0.0 | 1.0 | 0.00 | 0.00 | 0.00 | 39 | 1019.6 |
| 20260506150330 | 68 | 89 | 0.0 | 1.0 | 0.00 | 0.00 | 0.00 | 40 | 1019.8 |
| 20260506145826 | 68 | 86 | 1.0 | 3.0 | 0.00 | 0.00 | 0.00 | 40 | 1019.9 |
| 20260506145322 | 68 | 95 | 1.0 | 3.0 | 0.00 | 0.00 | 0.00 | 41 | 1019.8 |
| 20260506144821 | 67 | 81 | 2.0 | 3.0 | 0.00 | 0.00 | 0.00 | 41 | 1019.7 |
| 20260506144317 | 65 | 91 | 0.0 | 2.0 | 0.00 | 0.00 | 0.00 | 45 | 1019.8 |
| 20260506143816 | 66 | 22 | 0.0 | 2.0 | 0.00 | 0.00 | 0.00 | 43 | 1019.7 |
| 20260506143312 | 65 | 62 | 1.0 | 2.0 | 0.00 | 0.00 | 0.00 | 45 | 1019.7 |
| 20260506142810 | 64 | 27 | 2.0 | 2.0 | 0.00 | 0.00 | 0.00 | 46 | 1019.7 |
| 20260506142307 | 63 | 13 | 1.0 | 2.0 | 0.00 | 0.00 | 0.00 | 48 | 1019.6 |
| 20260506141806 | 64 | 21 | 1.0 | 2.0 | 0.00 | 0.00 | 0.00 | 46 | 1019.5 |
| 20260506141304 | 64 | 39 | 0.0 | 2.0 | 0.00 | 0.00 | 0.00 | 46 | 1019.7 |
| 20260506140801 | 64 | 60 | 1.0 | 2.0 | 0.00 | 0.00 | 0.00 | 46 | 1019.4 |
| 20260506140257 | 63 | 96 | 2.0 | 2.0 | 0.00 | 0.00 | 0.00 | 48 | 1019.4 |
| 20260506135755 | 59 | 34 | 0.0 | 2.0 | 0.00 | 0.00 | 0.00 | 52 | 1019.2 |
| 20260506135251 | 59 | 28 | 2.0 | 4.0 | 0.00 | 0.00 | 0.00 | 53 | 1019.3 |
| 20260506134748 | 58 | 20 | 1.0 | 2.0 | 0.00 | 0.00 | 0.00 | 54 | 1019.3 |
| 20260506134244 | 56 | 114 | 0.0 | 2.0 | 0.00 | 0.00 | 0.00 | 56 | 1019.3 |
| 20260506133742 | 56 | 151 | 1.0 | 2.0 | 0.00 | 0.00 | 0.00 | 57 | 1019.3 |
| 20260506133238 | 54 | 239 | 2.0 | 2.0 | 0.00 | 0.00 | 0.00 | 58 | 1019.1 |
| 20260506132735 | 53 | 283 | 0.0 | 2.0 | 0.00 | 0.00 | 0.00 | 60 | 1019.1 |
| 20260506132233 | 52 | 242 | 1.0 | 2.0 | 0.00 | 0.00 | 0.00 | 62 | 1019.1 |
| 20260506131731 | 52 | 181 | 1.0 | 2.0 | 0.00 | 0.00 | 0.00 | 62 | 1018.9 |
| 20260506131226 | 51 | 272 | 1.0 | 2.0 | 0.00 | 0.00 | 0.00 | 63 | 1018.9 |
| 20260506130723 | 51 | 165 | 0.0 | 2.0 | 0.00 | 0.00 | 0.00 | 62 | 1018.8 |
| 20260506130220 | 52 | 194 | 2.0 | 2.0 | 0.00 | 0.00 | 0.00 | 63 | 1018.8 |
| 20260506125718 | 51 | 151 | 0.0 | 2.0 | 0.00 | 0.00 | 0.00 | 62 | 1018.7 |
| 20260506125216 | 52 | 148 | 0.0 | 2.0 | 0.00 | 0.00 | 0.00 | 62 | 1018.8 |
| 20260506124714 | 51 | 61 | 1.0 | 2.0 | 0.00 | 0.00 | 0.00 | 63 | 1018.6 |
| 20260506124211 | 52 | 91 | 2.0 | 2.0 | 0.00 | 0.00 | 0.00 | 62 | 1018.3 |
| 20260506123708 | 53 | 256 | 0.0 | 2.0 | 0.00 | 0.00 | 0.00 | 61 | 1018.5 |
| 20260506123207 | 53 | 247 | 1.0 | 2.0 | 0.00 | 0.00 | 0.00 | 61 | 1018.5 |
| 20260506122703 | 53 | 262 | 1.0 | 2.0 | 0.00 | 0.00 | 0.00 | 60 | 1018.3 |
| 20260506122201 | 54 | 192 | 1.0 | 3.0 | 0.00 | 0.00 | 0.00 | 59 | 1018.6 |
| 20260506121659 | 54 | 215 | 1.0 | 2.0 | 0.00 | 0.00 | 0.00 | 59 | 1018.3 |
| 20260506121155 | 54 | 239 | 2.0 | 4.0 | 0.00 | 0.00 | 0.00 | 59 | 1018.4 |
| 20260506120653 | 52 | 178 | 0.0 | 2.0 | 0.00 | 0.00 | 0.00 | 62 | 1018.3 |
| 20260506120150 | 51 | 195 | 1.0 | 2.0 | 0.00 | 0.00 | 0.00 | 62 | 1018.3 |
| 20260506115648 | 52 | 184 | 2.0 | 2.0 | 0.00 | 0.00 | 0.00 | 62 | 1018.1 |
| 20260506115146 | 51 | 162 | 1.0 | 2.0 | 0.00 | 0.00 | 0.00 | 64 | 1018.3 |